Location: Home
(42.5358°N, 72.7383°W)
Time: 20:32:07
(UTC-05:00)

Explorer 7 - Pass Details

Date: 04 December 2021
Orbit: 483 x 674 km, 50.3° (Epoch: 23 January)

Event Time Altitude Azimuth Distance (km) Brightness Sun altitude
Rises 10:03:39 0° 301° (WNW) 2,661 9.8 21.3°
Reaches altitude 10° 10:05:59 10° 307° (NW) 1,742 8.9 21.5°
Maximum altitude 10:09:46 46° 22° (NNE) 679 7.2 21.8°
Drops below altitude 10° 10:13:25 10° 97° (E) 1,673 9.8 22.0°
Sets 10:15:37 0° 104° (ESE) 2,542 10.7 22.2°
